This is the latest recevied weather packets stored in our database for station/object LX0APE-4. If no packets are shown the sender has not sent any weather packets the latest 1 day(s).
| Time | Temp. | Humidity | Pressure | Rain* | Wind** | Luminosity | Snow |
|---|---|---|---|---|---|---|---|
| 1777965113 | 16.67° C | 72% | 5006.4 hPa | 0 mm | 0 m/s | - | - |
| 1777964813 | 16.11° C | 73% | 5006.6 hPa | 0 mm | 0 m/s | - | - |
| 1777964513 | 16.11° C | 74% | 5006.6 hPa | 0 mm | 0 m/s | - | - |
| 1777964213 | 15.56° C | 75% | 5006.6 hPa | 0 mm | 0 m/s | - | - |
| 1777963913 | 15° C | 76% | 5006.5 hPa | 0 mm | 0 m/s | - | - |
| 1777963613 | 15° C | 75% | 5006.5 hPa | 0 mm | 0 m/s | - | - |
| 1777963313 | 15° C | 75% | 5006.6 hPa | 0 mm | 0 m/s | - | - |
| 1777963013 | 14.44° C | 75% | 5006.7 hPa | 0 mm | 0 m/s | - | - |
| 1777962713 | 14.44° C | 76% | 5006.7 hPa | 0 mm | 0 m/s | - | - |
| 1777962413 | 14.44° C | 75% | 5006.6 hPa | 0 mm | 0 m/s | - | - |
| 1777962113 | 14.44° C | 75% | 5006.6 hPa | 0 mm | 0 m/s | - | - |
| 1777961813 | 15° C | 75% | 5006.7 hPa | 0 mm | 0 m/s | - | - |
| 1777961513 | 15° C | 76% | 5006.6 hPa | 0 mm | 0 m/s | - | - |
| 1777961220 | 14.44° C | 76% | 5006.7 hPa | 0 mm | 0 m/s | - | - |
| 1777961213 | 14.44° C | 76% | 5006.7 hPa | 0 mm | 0 m/s | - | - |
| 1777960916 | 14.44° C | 76% | 5006.7 hPa | 0 mm | 0 m/s | - | - |
| 1777960613 | 14.44° C | 77% | 5006.7 hPa | 0 mm | 0 m/s | - | - |
| 1777960313 | 13.89° C | 78% | 5006.7 hPa | 0 mm | 0 m/s | - | - |
| 1777960013 | 13.89° C | 78% | 5006.7 hPa | 0 mm | 0 m/s | - | - |
| 1777959713 | 13.33° C | 79% | 5006.7 hPa | 0 mm | 0 m/s | - | - |
| 1777959413 | 13.33° C | 79% | 5006.7 hPa | 0 mm | 0 m/s | - | - |
| 1777959113 | 12.78° C | 79% | 5006.7 hPa | 0 mm | 0 m/s | - | - |
| 1777958813 | 12.78° C | 79% | 5006.8 hPa | 0 mm | 0 m/s | - | - |
| 1777958513 | 12.78° C | 79% | 5006.7 hPa | 0 mm | 0 m/s | - | - |
| 1777958213 | 12.78° C | 79% | 5006.7 hPa | 0 mm | 0 m/s | - | - |
* Rain latest hour (hover to see other rain measurements)
** Current wind speed in m/s (hover to see current wind gust speed)